Temperature
27 27 27 26 26 27 27 28 28 28 28 27 26 25 25 25 25 24 23 22 21 20 20 19 19 18 18 18 18 18 17 17 17 17 17 17 17 17 17 17 17 17 17 17
26 27 27 26 27 27 27 27 28 28 28 28 26 25 24 24 24 24 23 22 21 20 19 19 18 18 18 18 18 18 17 17 17 17 17 17 17 17 17 17 17 16 16 16
25 26 26 26 27 27 27 28 28 27 27 27 25 24 24 23 23 23 22 21 20 20 19 18 18 18 18 18 17 17 17 17 17 17 17 17 17 16 16 16 16 16 16 16
24 24 23 26 28 28 27 28 28 27 27 26 24 23 22 22 22 21 21 20 20 19 19 18 18 18 18 17 17 17 17 17 17 16 16 16 16 16 16 16 16 16 16 16
23 23 24 26 26 26 26 26 26 25 24 24 23 22 21 20 20 19 19 19 19 19 18 18 18 18 17 17 17 17 17 16 16 16 16 16 16 16 16 16 16 16 16 15
23 22 22 24 25 25 25 24 23 22 22 22 23 22 19 18 18 18 18 18 18 18 18 18 17 17 17 17 17 16 16 16 16 16 16 16 16 16 16 15 15 15 15 15
22 22 23 22 23 24 23 21 21 21 21 20 21 20 18 17 17 16 16 16 16 17 17 17 17 17 16 16 16 16 16 16 16 16 16 15 15 15 15 15 15 15 14 14
21 21 21 21 22 20 19 19 19 19 19 18 17 17 16 16 15 15 15 15 15 15 15 16 16 16 16 15 15 15 15 15 15 15 15 15 15 15 15 15 14 14 14 13
20 20 19 18 18 18 18 18 18 17 17 16 16 16 15 14 14 14 14 14 14 14 14 14 15 15 15 15 15 15 15 14 14 14 14 14 14 14 14 14 14 14 13 13
20 19 18 17 17 16 16 16 16 16 16 16 15 14 14 13 13 13 13 13 13 13 13 13 13 14 14 14 14 14 14 14 14 14 14 14 14 13 13 13 13 13 12 12
18 18 17 16 15 15 15 15 15 15 15 15 14 13 13 12 12 12 12 12 12 12 12 12 12 13 13 13 13 13 13 13 13 13 13 13 13 13 12 12 12 12 12 11
16 15 15 14 13 13 14 13 13 13 13 13 13 12 12 12 12 11 11 11 11 11 11 11 11 11 12 12 12 12 12 12 13 13 12 12 12 12 11 11 11 11 11 11
14 13 13 12 12 12 12 12 12 12 12 12 12 12 11 11 11 11 11 11 11 11 10 11 11 11 11 11 11 11 12 12 12 12 12 12 12 11 11 11 10 10 10 10
13 12 12 12 11 11 11 11 11 11 11 11 11 11 11 10 10 10 10 10 10 10 10 10 10 10 10 10 11 11 11 11 11 11 11 11 11 11 11 11 10 10 9 9
12 12 12 11 11 11 11 11 11 11 10 10 10 10 10 10 10 10 10 10 10 10 9 9 9 9 10 10 10 10 10 10 11 11 11 11 11 11 10 10 10 9 8 8
12 12 11 11 11 11 11 11 10 10 10 10 10 10 10 9 9 9 9 9 9 9 9 9 9 9 9 9 10 10 10 10 10 10 10 10 10 10 10 9 9 8 8 8
12 12 12 11 11 11 11 11 11 10 10 10 10 9 9 9 9 9 9 9 9 8 8 8 8 8 9 9 9 10 10 10 10 10 10 10 9 9 9 9 8 8 7 7
12 12 12 12 11 11 11 11 11 10 10 10 9 9 9 9 9 9 8 8 8 8 8 8 8 8 8 9 9 9 10 10 9 9 9 9 8 8 8 8 8 7 7 6
12 12 12 12 11 11 11 11 10 10 10 10 9 9 9 9 8 8 8 8 8 8 8 8 8 8 8 9 9 9 9 9 9 9 8 8 8 8 7 7 7 6 6 5
11 11 11 11 11 11 11 10 10 10 10 9 9 9 9 8 8 8 8 8 8 8 7 8 8 8 8 8 9 9 9 9 9 8 8 7 7 7 6 6 6 5 5 5
11 11 11 11 11 11 11 10 10 10 10 9 9 9 9 9 8 8 8 8 7 7 7 7 7 7 8 8 8 8 8 8 8 8 7 7 6 6 5 5 5 4 4 4
11 11 11 11 11 11 10 10 10 10 10 9 9 9 9 9 8 8 8 8 7 7 7 7 7 7 7 7 8 8 8 7 7 7 6 6 5 5 5 4 4 4 4 3
11 11 11 11 11 11 10 10 10 10 10 9 9 9 9 9 9 8 8 7 7 7 7 7 7 7 7 7 7 7 7 7 6 6 5 5 5 4 4 4 4 3 3 3
11 11 11 11 11 11 10 10 10 10 9 9 9 9 9 9 8 8 7 7 7 7 6 6 6 6 6 6 6 6 6 6 6 5 5 5 4 4 4 3 3 3 3 2
11 11 11 11 11 10 10 10 10 10 10 10 9 9 9 9 8 7 7 7 6 6 6 6 6 6 6 6 5 5 5 5 5 5 4 4 4 4 3 3 3 2 2 2
10 11 10 11 11 11 11 10 10 10 10 10 9 9 8 8 7 7 7 6 6 6 6 5 5 5 5 5 5 5 4 4 4 4 4 4 3 3 3 2 2 2 2 2
10 10 10 11 11 11 11 11 10 10 10 9 9 9 8 8 7 7 6 6 6 6 5 5 5 5 5 5 4 4 4 4 4 4 3 3 3 3 2 2 2 2 1 1
Wind_Speed
12 9 7 9 12 13 15 14 13 12 10 4 4 4 3 4 6 9 9 8 8 7 8 7 6 6 7 7 7 7 7 8 8 7 7 7 6 6 6 6 7 6 5 5
12 13 12 12 13 14 15 15 16 13 8 2 5 4 3 3 4 7 8 8 8 8 8 8 7 6 7 7 7 7 6 6 6 7 6 5 6 6 5 5 5 5 5 5
13 13 14 15 13 12 12 13 13 12 6 1 5 4 4 3 3 5 6 7 7 7 7 7 6 6 6 6 6 6 6 5 6 6 6 5 6 5 5 5 5 4 4 4
11 13 16 11 8 9 11 11 9 6 5 3 5 5 5 4 5 5 6 6 7 6 7 7 6 7 7 7 7 6 6 5 5 5 6 5 5 4 4 4 4 4 3 3
10 13 13 10 7 7 7 8 6 4 4 4 6 6 7 7 8 8 7 6 6 6 7 7 7 7 7 7 7 6 6 5 5 4 5 5 4 4 3 3 3 3 3 3
10 12 11 5 7 7 6 5 10 8 5 2 2 1 3 7 9 9 8 7 7 7 8 8 7 8 8 7 7 6 6 6 6 5 4 5 4 4 3 3 3 3 3 4
12 12 8 6 8 7 5 3 9 6 3 3 3 4 7 8 10 10 9 10 9 9 8 7 7 8 9 8 7 6 6 7 6 6 6 5 4 4 4 4 4 5 6 7
8 10 5 11 8 5 5 8 7 6 6 8 9 10 10 11 11 11 10 10 10 10 10 9 8 9 10 8 7 7 8 7 7 6 6 6 5 5 4 4 5 5 5 6
2 1 5 8 6 6 6 5 4 4 5 6 8 10 12 12 12 12 12 12 12 12 12 11 10 10 11 8 8 9 9 9 9 9 8 7 7 6 5 4 4 4 4 4
3 1 6 8 8 8 7 4 3 3 4 6 9 12 12 12 12 12 12 11 11 13 13 12 12 12 10 9 9 9 10 9 9 10 10 10 9 9 8 7 6 6 6 6
4 3 4 7 7 8 6 5 5 6 6 9 12 13 13 13 12 12 11 11 11 12 13 13 12 12 11 10 9 9 9 8 9 10 10 9 10 9 9 8 7 7 7 6
2 4 3 4 6 6 6 7 8 9 11 10 12 14 14 13 12 12 12 12 12 13 13 13 12 12 10 9 9 9 9 8 7 7 7 7 8 9 13 11 12 13 11 9
4 5 5 4 7 8 9 9 10 11 12 12 13 14 15 14 13 13 13 13 13 13 12 12 13 12 10 9 9 8 8 7 5 6 6 6 6 6 6 7 9 10 10 10
7 6 7 7 7 9 10 11 12 13 13 13 14 15 15 15 14 13 12 12 12 13 12 12 12 11 9 9 9 8 8 8 6 6 5 5 4 4 4 5 5 4 4 4
8 8 8 8 9 9 11 12 14 14 14 14 14 14 14 14 13 12 11 11 12 13 12 12 11 10 8 8 8 8 7 6 6 5 4 5 4 5 5 5 4 4 4 3
8 9 10 10 10 10 11 12 14 13 14 14 13 14 14 13 13 12 12 12 12 12 10 10 9 8 7 7 7 6 6 6 4 4 4 5 5 6 6 5 6 6 6 6
9 9 10 10 11 10 11 12 13 13 13 14 13 13 13 13 13 12 11 11 10 10 9 9 8 7 7 6 5 5 5 5 3 5 6 7 7 7 6 6 6 6 6 6
9 9 10 11 12 12 12 13 13 14 13 13 13 13 12 12 12 11 10 10 10 10 9 9 7 6 7 8 6 5 5 5 6 7 7 7 6 6 6 6 7 7 5 6
11 11 12 12 12 12 13 14 14 13 13 13 13 12 11 11 10 10 9 9 9 9 8 7 6 6 7 8 7 3 5 6 6 6 6 6 6 7 8 8 8 8 8 7
13 14 14 14 13 13 14 14 13 12 12 12 12 11 10 10 9 8 8 8 7 7 6 6 5 6 7 8 8 5 5 6 6 6 6 7 7 7 7 7 7 7 7 7
14 14 14 13 13 13 13 13 13 12 11 11 10 10 9 8 7 6 6 8 8 6 5 4 5 6 7 7 6 5 6 6 6 6 7 7 7 7 7 7 7 7 6 6
13 13 13 13 12 11 11 11 11 11 10 9 9 9 9 7 7 7 7 6 6 5 3 5 7 8 10 9 5 6 7 7 7 6 7 6 6 6 6 6 6 6 6 7
12 13 12 12 12 12 11 11 11 10 9 8 8 7 7 5 5 5 6 6 6 6 6 7 7 9 11 6 6 6 7 7 7 6 6 6 6 6 6 6 6 6 6 6
12 12 11 11 11 11 11 10 9 8 8 8 7 6 6 6 6 7 8 8 8 7 6 6 6 8 7 4 6 6 6 6 6 6 6 6 5 5 5 5 5 6 6 7
11 11 10 10 10 9 9 9 8 8 7 6 7 7 6 6 7 7 7 7 7 5 6 5 3 5 4 5 6 6 6 6 6 6 6 6 6 5 5 5 5 5 5 6
10 8 7 7 6 6 7 7 6 6 6 6 6 7 7 7 7 6 5 6 6 4 4 4 3 2 4 5 5 5 5 4 4 4 5 5 5 6 6 6 6 5 5 6
9 7 5 6 6 5 5 5 6 6 6 6 6 6 6 6 6 5 5 4 4 4 4 3 3 3 4 4 4 4 4 4 4 5 5 5 4 4 5 5 5 6 6 7
Wind_Direction
269 266 258 263 267 275 278 275 275 275 278 274 155 137 140 149 142 138 138 138 136 138 139 139 141 142 147 149 150 155 160 165 169 170 174 177 180 184 183 185 196 196 191 196
270 265 255 255 253 258 266 273 274 272 271 272 133 124 114 106 133 141 141 141 138 141 140 142 147 148 149 150 148 145 148 153 153 159 166 171 172 176 179 184 191 187 189 190
272 271 272 261 259 258 265 268 275 279 287 105 110 102 102 112 111 118 128 129 127 135 137 139 144 139 140 140 140 142 144 152 151 156 162 169 180 180 183 185 186 185 189 190
272 278 268 276 287 282 276 277 292 310 337 34 98 92 79 81 101 111 106 109 116 128 130 135 137 139 136 136 132 133 135 141 147 158 163 164 167 171 175 168 173 179 176 170
266 268 268 279 309 312 298 297 349 6 32 52 87 84 65 61 77 87 88 89 105 114 121 120 122 124 125 126 127 129 134 135 135 141 151 153 157 154 158 160 163 166 155 143
257 265 268 304 352 345 311 275 25 29 38 70 145 154 86 64 76 76 76 77 85 96 95 100 112 120 118 121 120 120 122 121 118 110 119 130 131 129 126 126 127 122 121 111
256 261 260 5 348 327 274 347 6 3 36 40 25 82 102 88 83 79 78 76 72 74 81 86 96 103 107 109 111 115 111 106 104 106 107 98 97 101 106 112 111 105 99 92
255 259 265 16 7 11 1 357 2 14 48 68 83 95 97 91 90 88 82 80 77 74 72 69 80 93 96 92 95 99 99 96 92 87 88 91 88 86 87 97 112 113 111 106
255 287 26 23 13 354 342 343 4 39 74 89 101 103 99 97 93 87 82 79 76 77 71 64 65 77 84 78 81 88 88 83 81 76 65 63 70 73 72 71 76 86 94 94
304 16 24 13 9 9 7 5 13 66 100 113 111 108 103 101 95 88 83 82 81 81 78 69 63 65 70 73 76 80 80 81 81 78 70 60 55 55 53 44 45 51 56 62
300 327 1 11 8 9 15 40 58 69 81 100 109 107 104 98 93 89 86 82 81 81 79 75 69 64 63 65 71 77 76 74 80 81 79 74 67 59 63 54 57 59 52 55
335 5 353 358 16 32 65 77 86 90 88 92 101 104 102 98 94 91 88 85 83 81 81 77 72 65 58 57 63 69 74 68 75 82 86 92 94 81 60 70 69 68 67 72
61 47 62 58 54 63 75 82 89 93 95 95 94 98 99 96 91 89 86 84 84 82 79 76 72 65 58 55 57 63 72 70 70 77 80 86 93 102 102 80 67 67 70 72
87 87 80 75 73 75 85 91 93 91 91 93 97 99 99 97 94 90 87 86 85 83 80 77 73 65 56 57 56 56 60 62 56 63 64 68 76 82 92 106 109 94 82 82
82 90 100 101 95 93 95 99 99 98 98 100 102 103 101 100 98 95 92 89 84 80 75 73 70 62 55 57 57 60 59 55 47 48 55 61 59 61 63 61 71 89 94 63
111 110 109 108 110 110 110 108 107 109 110 106 103 102 101 100 98 94 89 85 84 81 76 73 68 59 53 56 58 71 74 65 44 49 56 54 52 53 53 50 50 56 54 42
132 133 129 125 122 117 115 114 114 113 110 108 107 107 106 103 99 95 92 89 87 83 76 68 60 49 47 43 37 55 70 76 54 49 53 49 46 47 45 41 44 54 56 49
132 134 132 132 128 121 118 116 113 113 113 112 112 109 107 104 102 98 94 94 89 81 73 66 54 49 48 38 17 27 47 57 58 56 54 49 41 40 42 42 40 47 47 43
123 123 121 119 118 115 113 111 109 108 108 108 107 105 103 102 101 100 98 94 92 86 74 63 43 48 50 34 5 12 48 55 62 62 61 55 41 42 41 41 41 40 36 32
119 118 116 112 110 111 110 110 110 108 108 110 112 111 108 107 107 107 102 92 81 80 75 60 46 45 41 23 358 19 41 50 58 58 53 48 48 47 45 41 42 39 34 29
125 123 121 117 112 112 112 114 114 114 115 116 114 112 109 108 109 108 106 99 89 71 72 70 54 42 30 1 341 22 41 46 52 54 54 54 49 45 43 37 35 33 29 25
125 124 121 119 117 114 113 114 115 116 115 115 114 114 114 115 111 99 88 91 96 65 58 68 58 36 7 349 19 40 40 42 50 57 59 57 53 49 46 41 35 32 30 28
122 120 119 119 118 117 117 117 116 116 115 114 112 113 113 106 106 107 97 89 89 70 63 62 44 19 356 7 36 47 45 42 44 54 62 60 56 53 49 44 39 34 31 27
116 115 117 118 116 117 115 113 112 113 117 117 118 116 113 108 100 95 96 88 76 79 77 67 38 9 353 30 44 47 49 46 45 48 51 54 54 55 51 43 35 33 34 31
114 115 118 122 123 121 120 121 122 126 124 118 117 112 103 96 98 97 101 104 107 99 97 84 37 2 23 48 53 51 52 46 38 36 48 48 48 49 48 43 39 37 33 29
115 118 117 114 113 123 132 135 134 128 120 114 107 102 99 98 101 104 105 108 107 98 94 100 87 70 60 59 53 50 52 55 47 48 50 51 47 45 42 37 35 31 31 32
123 125 127 125 127 125 123 121 116 112 108 105 104 103 105 107 107 108 108 112 116 113 106 100 87 78 69 65 63 60 56 52 50 48 50 50 48 52 54 44 37 30 28 36
Height
1434 1433 1436 1440 1440 1437 1439 1437 1441 1438 1436 1435 1436 1439 1442 1444 1446 1449 1453 1457 1460 1464 1467 1470 1472 1474 1477 1479 1482 1485 1488 1490 1493 1496 1499 1502 1504 1506 1510 1513 1516 1518 1520 1522
1440 1434 1434 1437 1435 1435 1434 1433 1432 1430 1434 1431 1435 1440 1443 1446 1447 1449 1453 1456 1460 1464 1467 1469 1471 1474 1476 1479 1481 1484 1487 1489 1492 1495 1497 1500 1502 1505 1508 1511 1513 1515 1517 1519
1445 1436 1436 1442 1432 1430 1431 1428 1429 1433 1432 1431 1436 1440 1445 1447 1448 1450 1453 1457 1460 1463 1466 1468 1471 1473 1476 1479 1481 1484 1486 1489 1492 1494 1496 1499 1501 1504 1507 1509 1511 1513 1515 1517
1446 1446 1456 1435 1422 1423 1427 1426 1424 1426 1429 1432 1437 1442 1446 1448 1449 1452 1454 1457 1461 1464 1466 1469 1471 1474 1476 1479 1481 1484 1486 1489 1491 1494 1496 1498 1501 1503 1505 1507 1509 1510 1512 1514
1448 1450 1443 1432 1426 1426 1430 1431 1429 1431 1434 1437 1440 1443 1448 1450 1451 1453 1456 1458 1461 1464 1466 1468 1471 1473 1476 1479 1481 1484 1486 1488 1491 1493 1495 1497 1499 1501 1503 1505 1507 1508 1509 1511
1447 1453 1453 1440 1431 1428 1431 1437 1437 1438 1439 1441 1441 1445 1453 1454 1454 1456 1458 1460 1462 1464 1466 1468 1471 1474 1476 1479 1482 1484 1486 1489 1491 1493 1495 1495 1498 1500 1502 1504 1505 1506 1507 1508
1448 1450 1442 1439 1434 1432 1444 1449 1444 1442 1442 1443 1444 1448 1454 1455 1457 1458 1460 1462 1464 1465 1467 1469 1472 1475 1477 1480 1482 1485 1487 1489 1491 1493 1494 1495 1498 1500 1501 1503 1504 1505 1506 1507
1448 1452 1451 1443 1439 1445 1449 1447 1445 1445 1445 1446 1448 1452 1455 1457 1459 1461 1463 1464 1466 1467 1469 1471 1474 1476 1478 1481 1483 1486 1488 1490 1491 1493 1496 1497 1499 1500 1501 1503 1504 1506 1507 1507
1445 1450 1448 1447 1448 1449 1448 1447 1447 1448 1448 1449 1451 1454 1458 1460 1462 1463 1465 1467 1468 1470 1472 1474 1476 1478 1480 1483 1485 1487 1489 1491 1493 1495 1497 1498 1500 1501 1502 1504 1505 1506 1507 1508
1443 1445 1448 1449 1449 1449 1448 1447 1448 1449 1450 1451 1454 1457 1460 1462 1464 1466 1468 1470 1472 1473 1475 1477 1479 1481 1483 1485 1487 1488 1490 1493 1495 1496 1498 1499 1501 1502 1503 1504 1505 1506 1507 1507
1448 1449 1450 1451 1451 1450 1448 1447 1448 1450 1451 1453 1456 1459 1462 1465 1468 1470 1472 1474 1475 1477 1479 1481 1483 1485 1486 1488 1490 1491 1493 1495 1497 1498 1499 1501 1502 1504 1505 1505 1506 1507 1507 1508
1452 1454 1454 1455 1453 1451 1449 1449 1450 1452 1454 1457 1459 1462 1465 1468 1471 1474 1476 1478 1480 1482 1484 1485 1487 1489 1490 1492 1493 1494 1495 1497 1499 1501 1502 1503 1504 1505 1506 1507 1508 1508 1509 1509
1455 1456 1455 1456 1455 1453 1452 1453 1454 1456 1458 1461 1464 1466 1469 1473 1476 1478 1481 1483 1485 1487 1489 1490 1491 1493 1495 1496 1497 1498 1499 1501 1502 1503 1504 1505 1506 1507 1507 1508 1509 1509 1509 1509
1457 1457 1458 1459 1458 1457 1457 1458 1459 1461 1464 1466 1469 1471 1474 1477 1481 1483 1486 1488 1490 1492 1493 1495 1496 1497 1499 1500 1501 1502 1503 1504 1505 1506 1507 1508 1509 1509 1510 1509 1509 1509 1509 1509
1459 1460 1461 1462 1462 1462 1462 1463 1464 1467 1470 1472 1475 1477 1479 1482 1485 1489 1491 1493 1495 1497 1498 1500 1500 1502 1503 1504 1504 1505 1506 1507 1507 1508 1510 1510 1510 1511 1511 1511 1511 1511 1510 1509
1462 1463 1464 1465 1466 1467 1468 1468 1470 1473 1475 1478 1480 1483 1485 1488 1490 1493 1496 1498 1499 1501 1503 1504 1505 1506 1507 1507 1507 1508 1508 1509 1510 1511 1512 1512 1512 1513 1513 1513 1512 1512 1511 1510
1463 1465 1466 1467 1469 1471 1472 1474 1476 1478 1480 1483 1486 1488 1491 1493 1496 1498 1501 1502 1504 1505 1507 1508 1509 1510 1510 1510 1510 1511 1512 1512 1512 1513 1513 1513 1514 1514 1514 1514 1514 1513 1512 1511
1464 1465 1467 1469 1471 1473 1476 1478 1480 1483 1486 1488 1491 1493 1496 1498 1500 1503 1505 1506 1508 1509 1510 1511 1512 1512 1513 1512 1513 1513 1514 1515 1515 1515 1515 1515 1515 1516 1515 1515 1514 1514 1513 1512
1465 1467 1469 1472 1474 1476 1479 1482 1485 1488 1491 1493 1496 1498 1501 1503 1505 1507 1509 1510 1511 1512 1513 1514 1515 1515 1515 1515 1515 1515 1516 1516 1516 1516 1517 1517 1517 1517 1516 1516 1515 1514 1513 1512
1468 1470 1472 1476 1478 1481 1484 1487 1490 1493 1496 1498 1500 1503 1505 1507 1509 1510 1511 1512 1514 1515 1516 1516 1517 1517 1517 1517 1517 1517 1518 1518 1518 1518 1518 1518 1518 1517 1517 1516 1516 1515 1514 1513
1471 1474 1477 1480 1483 1486 1489 1491 1494 1497 1500 1502 1504 1506 1508 1510 1511 1513 1514 1515 1517 1517 1518 1518 1518 1518 1519 1518 1518 1519 1519 1519 1519 1519 1519 1518 1518 1518 1517 1517 1516 1515 1514 1513
1475 1478 1481 1484 1487 1490 1493 1496 1498 1501 1503 1506 1508 1509 1511 1513 1514 1515 1516 1517 1518 1519 1519 1520 1519 1519 1520 1520 1520 1520 1520 1520 1520 1519 1519 1519 1519 1518 1518 1517 1516 1515 1514 1513
1479 1482 1485 1488 1491 1494 1497 1500 1502 1504 1506 1509 1510 1512 1513 1515 1516 1517 1518 1519 1519 1519 1520 1520 1520 1520 1521 1521 1521 1521 1520 1520 1520 1520 1520 1519 1519 1519 1518 1517 1516 1515 1514 1513
1483 1486 1489 1492 1495 1498 1500 1503 1505 1507 1509 1511 1512 1514 1515 1516 1518 1518 1519 1519 1520 1520 1521 1521 1521 1521 1521 1522 1522 1521 1521 1521 1521 1521 1520 1520 1519 1519 1518 1517 1516 1516 1514 1513
1487 1490 1493 1496 1498 1501 1503 1505 1508 1510 1511 1513 1514 1516 1517 1518 1519 1520 1520 1521 1521 1521 1522 1522 1522 1522 1522 1522 1522 1522 1522 1522 1521 1521 1520 1520 1519 1519 1518 1517 1516 1516 1515 1513
1491 1493 1496 1499 1501 1503 1506 1508 1510 1512 1513 1515 1516 1517 1518 1519 1520 1520 1521 1521 1522 1522 1523 1523 1523 1523 1523 1523 1523 1523 1523 1522 1522 1521 1521 1520 1520 1519 1518 1517 1516 1516 1515 1513
1494 1497 1499 1501 1504 1505 1507 1509 1511 1513 1514 1516 1517 1518 1519 1520 1521 1521 1522 1522 1523 1523 1523 1524 1524 1524 1524 1524 1524 1524 1523 1523 1523 1522 1521 1521 1520 1519 1519 1518 1517 1516 1515 1513